Location: Newark
(11.4947°N, 0.1467°E)
Time: 07:34:22
(UTC+00:00)

Envisat - Pass Details

Date: 12 November 2019
Orbit: 764 x 766 km, 98.1° (Epoch: 15 December)

Event Time Altitude Azimuth Distance (km) Brightness Sun altitude
Rises 05:29:47 0° 43° (NE) 3,219 6.6 -6.7°
Reaches altitude 10° 05:33:11 10° 67° (ENE) 2,293 6.3 -5.9°
Maximum altitude 05:35:50 14° 99° (E) 2,008 6.8 -5.3°
Drops below altitude 10° 05:38:28 10° 131° (SE) 2,293 6.8 -4.6°
Sets 05:41:51 0° 155° (SSE) 3,219 6.9 -3.8°
